EW8669 Weather Reports


Display with metric or nautical units.
time (UTC)temp
F
wind
direction
speed
MPH
gust
MPH
rain 1hr
in
rain 24hr
in
rain mn
in
humidity
%
barometer
mb
20260508004022 84 296 3.0 8.0 0.00 0.00 0.00 46 1012.6
20260508003525 84 290 1.0 4.0 0.00 0.00 0.00 45 1012.5
20260508003042 85 274 1.0 4.0 0.00 0.00 0.00 44 1012.4
20260508002522 85 290 1.0 4.0 0.00 0.00 0.00 44 1012.4
20260508002023 85 293 1.0 8.0 0.00 0.00 0.00 45 1012.4
20260508001606 86 288 1.0 8.0 0.00 0.00 0.00 43 1012.3
20260508001021 86 276 3.0 7.0 0.00 0.00 0.00 42 1012.3
20260508000521 86 275 2.0 7.0 0.00 0.00 0.00 43 1012.2
20260508000040 87 289 2.0 7.0 0.00 0.00 0.00 42 1012.2
20260507235521 87 275 2.0 7.0 0.00 0.00 0.00 42 1012.2
20260507235021 88 290 1.0 10.0 0.00 0.00 0.00 42 1012.2
20260507234540 88 287 3.0 10.0 0.00 0.00 0.00 41 1012.2
20260507234053 88 275 3.0 8.0 0.00 0.00 0.00 42 1012.1
20260507233521 89 287 3.0 8.0 0.00 0.00 0.00 42 1012.1
20260507233037 89 282 3.0 9.0 0.00 0.00 0.00 43 1012.1
20260507232521 89 289 3.0 9.0 0.00 0.00 0.00 44 1012.1
20260507232020 89 265 4.0 12.0 0.00 0.00 0.00 43 1012.1
20260507231545 90 288 3.0 12.0 0.00 0.00 0.00 44 1012.1
20260507231021 90 293 3.0 17.0 0.00 0.00 0.00 44 1011.9
20260507230521 90 296 6.0 17.0 0.00 0.00 0.00 45 1012.0
20260507230041 91 265 8.0 16.0 0.00 0.00 0.00 46 1012.0
20260507225521 92 263 6.0 10.0 0.00 0.00 0.00 44 1011.9
20260507225021 92 238 3.0 7.0 0.00 0.00 0.00 43 1011.8
20260507224544 91 252 4.0 8.0 0.00 0.00 0.00 42 1011.8
20260507224021 91 262 3.0 10.0 0.00 0.00 0.00 44 1011.8
20260507223520 91 240 6.0 10.0 0.00 0.00 0.00 46 1011.8
20260507223040 92 264 6.0 10.0 0.00 0.00 0.00 45 1011.9
20260507222522 92 275 6.0 9.0 0.00 0.00 0.00 48 1011.9
20260507222020 92 254 4.0 12.0 0.00 0.00 0.00 45 1011.9
20260507221536 92 236 5.0 12.0 0.00 0.00 0.00 44 1012.0
20260507221022 92 270 7.0 12.0 0.00 0.00 0.00 43 1012.0
20260507220521 92 242 8.0 10.0 0.00 0.00 0.00 43 1012.0
20260507220044 92 298 4.0 9.0 0.00 0.00 0.00 43 1012.0
20260507215524 92 235 5.0 9.0 0.00 0.00 0.00 41 1012.0
20260507215020 92 261 3.0 12.0 0.00 0.00 0.00 44 1011.9
20260507214544 92 250 7.0 12.0 0.00 0.00 0.00 42 1011.9
20260507214021 92 252 8.0 12.0 0.00 0.00 0.00 42 1012.0
20260507213523 92 229 6.0 18.0 0.00 0.00 0.00 43 1012.0
20260507213040 92 253 6.0 18.0 0.00 0.00 0.00 44 1012.1
20260507212521 92 257 8.0 18.0 0.00 0.00 0.00 46 1012.0
20260507212021 92 244 6.0 9.0 0.00 0.00 0.00 47 1012.1
20260507211536 91 259 3.0 8.0 0.00 0.00 0.00 47 1012.1
20260507211020 91 242 3.0 9.0 0.00 0.00 0.00 51 1012.2
20260507210521 91 220 4.0 9.0 0.00 0.00 0.00 49 1012.2
20260507210047 91 217 6.0 13.0 0.00 0.00 0.00 48 1012.2
20260507205522 91 236 4.0 13.0 0.00 0.00 0.00 51 1012.3
20260507205021 90 254 9.0 13.0 0.00 0.00 0.00 49 1012.2
20260507204545 90 248 7.0 13.0 0.00 0.00 0.00 52 1012.3
20260507204024 90 258 6.0 13.0 0.00 0.00 0.00 51 1012.4
20260507203520 90 253 7.0 13.0 0.00 0.00 0.00 53 1012.3
20260507203040 90 217 6.0 15.0 0.00 0.00 0.00 52 1012.4
20260507202522 89 223 8.0 15.0 0.00 0.00 0.00 55 1012.5
20260507202021 89 204 7.0 15.0 0.00 0.00 0.00 53 1012.5
20260507201546 89 221 9.0 15.0 0.00 0.00 0.00 54 1012.5
20260507201021 89 211 11.0 16.0 0.00 0.00 0.00 56 1012.7
20260507200521 89 254 10.0 16.0 0.00 0.00 0.00 56 1012.8
20260507200036 89 227 10.0 14.0 0.00 0.00 0.00 57 1012.9
20260507195521 89 221 11.0 16.0 0.00 0.00 0.00 55 1013.0
20260507195021 89 225 10.0 16.0 0.00 0.00 0.00 54 1012.9
20260507194541 89 221 9.0 14.0 0.00 0.00 0.00 57 1013.0
20260507194023 89 209 8.0 16.0 0.00 0.00 0.00 56 1013.1
20260507193521 89 234 9.0 16.0 0.00 0.00 0.00 58 1013.2
20260507193042 88 238 8.0 15.0 0.00 0.00 0.00 59 1013.1
20260507192521 88 205 9.0 15.0 0.00 0.00 0.00 56 1013.1
20260507192021 88 211 9.0 15.0 0.00 0.00 0.00 56 1013.4
20260507191540 88 239 9.0 18.0 0.00 0.00 0.00 59 1013.4
20260507191021 88 229 10.0 18.0 0.00 0.00 0.00 56 1013.5
20260507190521 88 230 10.0 17.0 0.00 0.00 0.00 56 1013.6
20260507190037 88 252 9.0 18.0 0.00 0.00 0.00 55 1013.5
20260507185521 88 215 10.0 18.0 0.00 0.00 0.00 56 1013.7
20260507185024 88 227 11.0 16.0 0.00 0.00 0.00 56 1013.9
20260507184534 88 229 11.0 16.0 0.00 0.00 0.00 55 1013.9
20260507184024 88 227 9.0 18.0 0.00 0.00 0.00 57 1014.1
20260507183521 88 252 11.0 19.0 0.00 0.00 0.00 55 1014.1
20260507183043 87 202 6.0 18.0 0.00 0.00 0.00 56 1014.2
20260507182522 87 194 10.0 18.0 0.00 0.00 0.00 56 1014.2
20260507182022 87 205 9.0 17.0 0.00 0.00 0.00 56 1014.4
20260507181540 87 225 11.0 16.0 0.00 0.00 0.00 53 1014.5
20260507181022 87 241 10.0 16.0 0.00 0.00 0.00 57 1014.7
20260507180526 87 209 8.0 16.0 0.00 0.00 0.00 56 1014.8
20260507180040 87 243 10.0 18.0 0.00 0.00 0.00 56 1014.9
20260507175521 87 221 8.0 18.0 0.00 0.00 0.00 57 1015.0
20260507175025 86 254 11.0 16.0 0.00 0.00 0.00 54 1015.0
20260507174545 86 232 9.0 16.0 0.00 0.00 0.00 55 1014.9
20260507174021 86 248 11.0 17.0 0.00 0.00 0.00 56 1015.0
20260507173524 86 227 12.0 18.0 0.00 0.00 0.00 57 1015.0
20260507173036 86 247 10.0 20.0 0.00 0.00 0.00 58 1015.0
20260507172521 85 215 14.0 20.0 0.00 0.00 0.00 56 1015.0
20260507172020 85 234 12.0 17.0 0.00 0.00 0.00 57 1014.9
20260507171537 85 227 13.0 17.0 0.00 0.00 0.00 58 1015.0
20260507171022 85 242 9.0 17.0 0.00 0.00 0.00 58 1015.1
20260507170521 85 240 11.0 18.0 0.00 0.00 0.00 59 1015.1
20260507170047 85 221 13.0 18.0 0.00 0.00 0.00 59 1015.1
20260507165521 84 232 12.0 17.0 0.00 0.00 0.00 59 1015.1
20260507165022 84 229 12.0 17.0 0.00 0.00 0.00 59 1015.1
20260507164541 84 247 11.0 16.0 0.00 0.00 0.00 58 1015.3
20260507164020 84 225 8.0 16.0 0.00 0.00 0.00 58 1015.3
20260507163523 84 221 9.0 16.0 0.00 0.00 0.00 60 1015.4
20260507163039 83 223 11.0 16.0 0.00 0.00 0.00 59 1015.5
20260507162522 83 232 11.0 16.0 0.00 0.00 0.00 64 1015.5
20260507162021 83 224 8.0 16.0 0.00 0.00 0.00 66 1015.5
20260507161536 83 234 11.0 16.0 0.00 0.00 0.00 63 1015.5
20260507161021 83 250 11.0 15.0 0.00 0.00 0.00 62 1015.5
20260507160524 83 247 11.0 15.0 0.00 0.00 0.00 65 1015.7
20260507160045 83 248 7.0 15.0 0.00 0.00 0.00 65 1015.6
20260507155521 82 255 9.0 16.0 0.00 0.00 0.00 65 1015.7
20260507155021 82 243 9.0 16.0 0.00 0.00 0.00 66 1015.6
20260507154544 82 242 10.0 16.0 0.00 0.00 0.00 66 1015.8
20260507154022 82 259 10.0 16.0 0.00 0.00 0.00 67 1015.8
20260507153520 82 261 10.0 15.0 0.00 0.00 0.00 67 1015.8
20260507153048 82 262 7.0 15.0 0.00 0.00 0.00 67 1015.9
20260507152520 82 244 7.0 15.0 0.00 0.00 0.00 67 1016.0
20260507152025 82 240 10.0 14.0 0.00 0.00 0.00 66 1016.1
20260507151540 82 259 6.0 12.0 0.00 0.00 0.00 67 1016.2
20260507151022 81 235 8.0 14.0 0.00 0.00 0.00 69 1016.1
20260507150521 81 234 8.0 14.0 0.00 0.00 0.00 65 1016.0
20260507150043 81 227 8.0 12.0 0.00 0.00 0.00 71 1016.1
20260507145520 81 227 7.0 14.0 0.00 0.00 0.00 69 1016.1
20260507145022 81 229 10.0 14.0 0.00 0.00 0.00 72 1016.1
20260507144540 81 238 9.0 13.0 0.00 0.00 0.00 71 1016.2
20260507144022 80 265 8.0 13.0 0.00 0.00 0.00 74 1016.1
20260507143521 80 223 6.0 10.0 0.00 0.00 0.00 76 1016.0
20260507143045 80 209 6.0 9.0 0.00 0.00 0.00 76 1016.1
20260507142520 79 216 5.0 9.0 0.00 0.00 0.00 75 1016.1
20260507142021 79 197 5.0 10.0 0.00 0.00 0.00 77 1016.0
20260507141540 79 209 6.0 10.0 0.00 0.00 0.00 78 1016.0
20260507141020 78 228 6.0 9.0 0.00 0.00 0.00 78 1015.9
20260507140522 78 200 6.0 9.0 0.00 0.00 0.00 79 1016.0
20260507140043 78 205 6.0 11.0 0.00 0.00 0.00 81 1016.0
20260507135524 78 199 7.0 11.0 0.00 0.00 0.00 81 1015.9
20260507135021 77 186 7.0 10.0 0.00 0.00 0.00 81 1016.0
20260507134541 77 192 6.0 10.0 0.00 0.00 0.00 83 1016.0
20260507134022 77 196 5.0 10.0 0.00 0.00 0.00 83 1016.0
20260507133522 77 185 6.0 10.0 0.00 0.00 0.00 84 1015.9
20260507133045 76 185 5.0 10.0 0.00 0.00 0.00 85 1016.0
20260507132521 76 192 7.0 11.0 0.00 0.00 0.00 85 1016.1
20260507132020 76 194 6.0 11.0 0.00 0.00 0.00 85 1015.9
20260507131553 76 193 7.0 11.0 0.00 0.00 0.00 86 1015.9
20260507131022 75 193 6.0 13.0 0.00 0.00 0.00 86 1015.9
20260507130522 75 202 7.0 13.0 0.00 0.00 0.00 86 1015.9
20260507130048 74 184 8.0 11.0 0.00 0.00 0.00 87 1015.8
20260507125520 74 185 6.0 11.0 0.00 0.00 0.00 88 1015.8
20260507125020 74 186 7.0 11.0 0.00 0.00 0.00 88 1015.8
20260507124547 74 188 5.0 8.0 0.00 0.00 0.00 89 1015.8
20260507124023 73 176 5.0 8.0 0.00 0.00 0.00 89 1015.8
20260507123522 73 173 5.0 8.0 0.00 0.00 0.00 90 1015.8
20260507123041 73 187 5.0 8.0 0.00 0.00 0.00 90 1015.9
20260507122522 73 202 3.0 8.0 0.00 0.00 0.00 91 1016.0
20260507122021 72 191 3.0 6.0 0.00 0.00 0.00 91 1015.9
20260507121545 72 167 2.0 5.0 0.00 0.00 0.00 91 1016.0
20260507121020 72 175 2.0 4.0 0.00 0.00 0.00 91 1015.9
20260507120520 72 180 2.0 4.0 0.00 0.00 0.00 92 1015.9
20260507120044 71 167 1.0 5.0 0.00 0.00 0.00 91 1015.9
20260507115522 71 167 3.0 5.0 0.00 0.00 0.00 91 1015.8
20260507115021 71 195 1.0 4.0 0.00 0.00 0.00 91 1015.9
20260507114546 71 138 2.0 5.0 0.00 0.00 0.00 91 1015.7
20260507114021 71 134 3.0 5.0 0.00 0.00 0.00 91 1015.7
20260507113522 71 138 3.0 5.0 0.00 0.00 0.00 92 1015.7
20260507113040 71 0 0.0 0.0 0.00 0.00 0.00 92 1015.5
20260507112522 71 0 0.0 0.0 0.00 0.00 0.00 92 1015.6
20260507112020 71 0 0.0 3.0 0.00 0.00 0.00 92 1015.6
20260507111537 71 0 0.0 4.0 0.00 0.00 0.00 92 1015.5
20260507111021 71 203 2.0 5.0 0.00 0.00 0.00 92 1015.6
20260507110521 71 205 2.0 6.0 0.00 0.00 0.00 92 1015.3
20260507110037 71 212 3.0 6.0 0.00 0.00 0.00 92 1015.3
20260507105520 71 216 4.0 6.0 0.00 0.00 0.00 92 1015.2
20260507105021 71 211 4.0 6.0 0.00 0.00 0.00 91 1015.3
20260507104540 71 210 4.0 6.0 0.00 0.00 0.00 92 1015.3
20260507104021 71 208 3.0 6.0 0.00 0.00 0.00 91 1015.3
20260507103520 71 207 4.0 8.0 0.00 0.00 0.00 91 1015.2
20260507103043 71 205 5.0 8.0 0.00 0.00 0.00 91 1015.2
20260507102522 71 193 4.0 6.0 0.00 0.00 0.00 91 1015.2
20260507102022 71 205 4.0 7.0 0.00 0.00 0.00 91 1015.2
20260507101540 71 207 4.0 7.0 0.00 0.00 0.00 91 1015.1
20260507101018 71 217 5.0 7.0 0.00 0.00 0.00 90 1014.9
20260507100522 71 210 5.0 7.0 0.00 0.00 0.00 90 1014.8
20260507100040 71 215 5.0 7.0 0.00 0.00 0.00 91 1014.9
20260507095523 71 213 5.0 8.0 0.00 0.00 0.00 91 1014.6
20260507095021 71 221 5.0 8.0 0.00 0.00 0.00 90 1014.7
20260507094541 71 210 5.0 8.0 0.00 0.00 0.00 90 1014.7
20260507094020 71 207 5.0 9.0 0.00 0.00 0.00 90 1014.6
20260507093521 71 199 6.0 9.0 0.00 0.00 0.00 90 1014.5
20260507093049 71 193 6.0 8.0 0.00 0.00 0.00 90 1014.3
20260507092522 71 186 6.0 10.0 0.00 0.00 0.00 90 1014.2
20260507092020 71 190 6.0 10.0 0.00 0.00 0.00 90 1014.3
20260507091546 71 193 7.0 10.0 0.00 0.00 0.00 89 1014.3
20260507091020 71 188 6.0 9.0 0.00 0.00 0.00 89 1014.4
20260507090522 71 188 6.0 9.0 0.00 0.00 0.00 89 1014.5
20260507090041 71 203 6.0 8.0 0.00 0.00 0.00 88 1014.6
20260507085520 71 182 4.0 7.0 0.00 0.00 0.00 88 1014.4
20260507085021 71 182 4.0 7.0 0.00 0.00 0.00 88 1014.4
20260507084537 71 194 3.0 5.0 0.00 0.00 0.00 88 1014.4
20260507084021 71 167 3.0 5.0 0.00 0.00 0.00 88 1014.5
20260507083521 71 178 3.0 6.0 0.00 0.00 0.00 87 1014.3
20260507083036 71 173 3.0 6.0 0.00 0.00 0.00 87 1014.3
20260507082521 71 157 4.0 6.0 0.00 0.00 0.00 86 1014.3
20260507082020 71 160 4.0 7.0 0.00 0.00 0.00 86 1014.3
20260507081547 71 151 3.0 7.0 0.00 0.00 0.00 86 1014.3
20260507081021 71 149 3.0 6.0 0.00 0.00 0.00 86 1014.2
20260507080525 71 144 4.0 6.0 0.00 0.00 0.00 86 1014.2
20260507080044 71 171 3.0 7.0 0.00 0.00 0.00 85 1014.3
20260507075524 71 157 4.0 7.0 0.00 0.00 0.00 85 1014.2
20260507075020 71 168 3.0 7.0 0.00 0.00 0.00 85 1014.3
20260507074557 72 161 4.0 7.0 0.00 0.00 0.00 85 1014.3
20260507074023 72 154 4.0 7.0 0.00 0.00 0.00 85 1014.2
20260507073523 72 155 5.0 7.0 0.00 0.00 0.00 85 1014.2
20260507073036 72 152 4.0 7.0 0.00 0.00 0.00 84 1014.2
20260507072524 72 161 3.0 6.0 0.00 0.00 0.00 84 1014.3
20260507072020 72 156 3.0 6.0 0.00 0.00 0.00 85 1014.4
20260507071543 72 157 2.0 7.0 0.00 0.00 0.00 84 1014.4
20260507071022 72 157 3.0 7.0 0.00 0.00 0.00 83 1014.5
20260507070526 72 155 4.0 6.0 0.00 0.00 0.00 83 1014.5
20260507070042 72 159 3.0 6.0 0.00 0.00 0.00 83 1014.6
20260507065523 72 167 4.0 6.0 0.00 0.00 0.00 82 1014.6
20260507065022 72 161 4.0 6.0 0.00 0.00 0.00 82 1014.7
20260507064540 72 157 4.0 6.0 0.00 0.00 0.00 82 1014.7
20260507064023 73 159 3.0 6.0 0.00 0.00 0.00 82 1014.9
20260507063522 73 164 3.0 6.0 0.00 0.00 0.00 82 1014.9
20260507063040 73 134 3.0 5.0 0.00 0.00 0.00 81 1015.1
20260507062521 73 152 2.0 5.0 0.00 0.00 0.00 81 1015.1
20260507062021 73 157 3.0 6.0 0.00 0.00 0.00 81 1015.2
20260507061544 73 155 3.0 6.0 0.00 0.00 0.00 80 1015.3
20260507061020 73 174 3.0 5.0 0.00 0.00 0.00 80 1015.3
20260507060520 74 156 2.0 5.0 0.00 0.00 0.00 79 1015.5
20260507060508 74 157 2.0 5.0 0.00 0.00 0.00 79 1015.4
20260507055521 74 151 2.0 5.0 0.00 0.00 0.00 79 1015.3
20260507055023 74 148 2.0 5.0 0.00 0.00 0.00 79 1015.5
20260507054557 74 157 2.0 8.0 0.00 0.00 0.00 79 1015.5
20260507054021 74 180 3.0 8.0 0.00 0.00 0.00 79 1015.4
20260507053521 74 166 4.0 7.0 0.00 0.00 0.00 79 1015.4
20260507053043 74 183 4.0 6.0 0.00 0.00 0.00 79 1015.2
20260507052520 74 188 4.0 7.0 0.00 0.00 0.00 79 1015.4
20260507052023 74 188 4.0 7.0 0.00 0.00 0.00 79 1015.5
20260507051540 74 188 4.0 6.0 0.00 0.00 0.00 78 1015.6
20260507051022 74 184 4.0 6.0 0.00 0.00 0.00 78 1015.6
20260507050521 74 193 4.0 6.0 0.00 0.00 0.00 77 1015.7
20260507050039 74 200 3.0 5.0 0.00 0.00 0.00 78 1015.8
20260507045521 74 230 1.0 3.0 0.00 0.00 0.00 78 1016.0
20260507045021 74 0 0.0 0.0 0.00 0.00 0.00 77 1016.1
20260507044548 74 0 0.0 3.0 0.00 0.00 0.00 76 1016.1
20260507044020 74 0 1.0 4.0 0.00 0.00 0.00 76 1016.2
20260507043520 74 264 1.0 4.0 0.00 0.00 0.00 76 1016.2
20260507043044 75 262 2.0 5.0 0.00 0.00 0.00 76 1016.1
20260507042524 75 244 2.0 5.0 0.00 0.00 0.00 77 1016.1
20260507042024 75 238 3.0 7.0 0.00 0.00 0.00 75 1016.1
20260507041542 75 225 3.0 7.0 0.00 0.00 0.00 76 1016.1
20260507041023 75 222 4.0 6.0 0.00 0.00 0.00 76 1016.0
20260507040523 75 200 4.0 7.0 0.00 0.00 0.00 76 1016.0
20260507040044 75 213 3.0 8.0 0.00 0.00 0.00 75 1015.9
20260507035523 75 221 2.0 8.0 0.00 0.00 0.00 77 1016.0
20260507035023 75 258 4.0 8.0 0.00 0.00 0.00 75 1016.1
20260507034535 75 234 1.0 12.0 0.00 0.00 0.00 75 1016.1
20260507034023 75 234 5.0 13.0 0.00 0.00 0.00 76 1016.2
20260507033521 75 200 8.0 14.0 0.00 0.00 0.00 77 1016.2
20260507033046 75 183 7.0 15.0 0.00 0.00 0.00 76 1015.8
20260507032523 74 260 8.0 15.0 0.00 0.00 0.00 76 1016.0
20260507032023 74 265 8.0 15.0 0.00 0.00 0.00 76 1016.1
20260507031555 74 119 2.0 9.0 0.00 0.00 0.00 75 1015.7
20260507031025 75 128 4.0 9.0 0.00 0.00 0.00 76 1015.5
20260507030521 75 121 5.0 8.0 0.00 0.00 0.00 75 1015.4
20260507030052 75 120 5.0 9.0 0.00 0.00 0.00 74 1015.6
20260507025523 75 126 5.0 10.0 0.00 0.00 0.00 74 1015.5
20260507025022 75 126 7.0 11.0 0.00 0.00 0.00 74 1015.4
20260507024544 75 123 7.0 11.0 0.00 0.00 0.00 73 1015.4
20260507024025 75 103 8.0 11.0 0.00 0.00 0.00 73 1015.4
20260507023522 75 122 7.0 11.0 0.00 0.00 0.00 72 1015.4
20260507023038 75 117 8.0 13.0 0.00 0.00 0.00 72 1015.3
20260507022525 75 124 8.0 13.0 0.00 0.00 0.00 73 1015.3
20260507022025 76 112 8.0 12.0 0.00 0.00 0.00 71 1015.4
20260507021543 76 117 8.0 12.0 0.00 0.00 0.00 72 1015.4
20260507021021 76 124 9.0 12.0 0.00 0.00 0.00 70 1015.4
20260507020521 76 128 8.0 13.0 0.00 0.00 0.00 72 1015.3
20260507020044 76 121 8.0 13.0 0.00 0.00 0.00 70 1015.3
20260507015520 76 128 9.0 13.0 0.00 0.00 0.00 69 1015.3
20260507015022 76 121 10.0 13.0 0.00 0.00 0.00 69 1015.3
20260507014548 77 132 9.0 14.0 0.00 0.00 0.00 69 1015.3
20260507014023 77 124 10.0 14.0 0.00 0.00 0.00 69 1015.5
20260507013521 77 126 9.0 13.0 0.00 0.00 0.00 69 1015.5
20260507013044 77 119 9.0 13.0 0.00 0.00 0.00 68 1015.5
20260507012523 77 120 10.0 13.0 0.00 0.00 0.00 68 1015.6
20260507012024 77 130 9.0 12.0 0.00 0.00 0.00 70 1015.6
20260507011541 78 113 9.0 12.0 0.00 0.00 0.00 68 1015.6
20260507011021 78 112 8.0 12.0 0.00 0.00 0.00 69 1015.5
20260507010523 78 122 8.0 12.0 0.00 0.00 0.00 68 1015.4
20260507010038 78 116 8.0 11.0 0.00 0.00 0.00 67 1015.3
20260507005522 78 133 7.0 11.0 0.00 0.00 0.00 67 1015.5
20260507005021 79 121 8.0 11.0 0.00 0.00 0.00 67 1015.5
20260507004542 79 119 7.0 11.0 0.00 0.00 0.00 66 1015.3